Location: Vale
(35.4830°N, 81.3830°W)
Time: 23:44:21
(UTC-04:00)

SR - All Passes

Search period start: 31 July 2014 00:00
Search period end: 10 August 2014 00:00
Orbit: 575 x 890 km, 66.7° (Epoch: 31 July)

Date Brightness Start Highest point End Pass type
(mag) Time Alt. Az. Time Alt. Az. Time Alt. Az.
31 Jul - 10:57:36 10° S 11:02:11 35° ESE 11:07:09 10° NE daylight
31 Jul - 12:39:53 10° WSW 12:44:24 29° NW 12:49:16 10° N daylight
31 Jul - 19:42:30 10° N 19:46:34 19° NE 19:50:33 10° E daylight
31 Jul - 21:23:28 10° NNW 21:29:25 72° WSW 21:35:03 10° SSE visible
01 Aug - 10:11:10 10° SE 10:14:23 17° ESE 10:17:45 10° ENE daylight
01 Aug - 11:50:55 10° SW 11:55:57 54° WNW 12:01:29 10° NNE daylight
01 Aug - 18:56:35 10° NNE 18:57:43 11° NE 18:58:51 10° NE daylight
01 Aug - 20:35:18 10° NNW 20:41:12 60° ENE 20:46:49 10° SE daylight
01 Aug - 22:19:02 10° WNW 22:22:49 18° WSW 22:26:30 10° SW visible
02 Aug - 11:02:38 10° SSW 11:07:44 76° ESE 11:13:20 10° NNE daylight
02 Aug - 12:47:24 10° W 12:50:39 16° NW 12:54:04 10° N daylight
02 Aug - 19:47:27 10° N 19:52:47 33° NE 19:57:55 10° ESE daylight
02 Aug - 21:29:40 10° NW 21:35:00 36° WSW 21:40:04 10° S visible
03 Aug - 10:15:05 10° S 10:19:44 36° ESE 10:24:46 10° NE daylight
03 Aug - 11:57:28 10° WSW 12:01:59 28° NW 12:06:50 10° N daylight
03 Aug - 19:00:02 10° N 19:04:10 19° NE 19:08:11 10° E daylight
03 Aug - 20:41:04 10° NNW 20:46:59 70° WSW 20:52:35 10° SSE daylight
04 Aug - 09:28:35 10° SE 09:31:55 18° ESE 09:35:26 10° ENE daylight
04 Aug - 11:08:27 10° SW 11:13:31 53° WNW 11:19:04 10° NNE daylight
04 Aug - 18:13:58 10° NNE 18:15:19 11° NE 18:16:40 10° NE daylight
04 Aug - 19:52:52 10° NNW 19:58:47 62° ENE 20:04:23 10° SE daylight
04 Aug - 21:36:42 10° WNW 21:40:23 17° WSW 21:43:56 10° SW visible
05 Aug - 10:20:09 10° SSW 10:25:17 78° ESE 10:30:56 10° NNE daylight
05 Aug - 12:05:00 10° W 12:08:15 16° NW 12:11:37 10° N daylight
05 Aug - 19:05:01 10° N 19:10:23 34° NE 19:15:30 10° ESE daylight
05 Aug - 20:47:17 10° NW 20:52:33 35° WSW 20:57:34 10° S visible
06 Aug - 09:32:34 10° S 09:37:17 37° ESE 09:42:23 10° NE daylight
06 Aug - 11:15:02 10° WSW 11:19:33 28° NW 11:24:24 10° N daylight
06 Aug - 18:17:35 10° N 18:21:45 19° NE 18:25:49 10° E daylight
06 Aug - 19:58:39 10° NNW 20:04:34 69° WSW 20:10:07 10° SSE daylight
07 Aug - 08:46:00 10° SE 08:49:28 18° ESE 08:53:06 10° ENE daylight
07 Aug - 10:26:00 10° SW 10:31:05 52° WNW 10:36:39 10° NNE daylight
07 Aug - 17:31:23 10° NNE 17:32:55 11° NE 17:34:26 10° ENE daylight
07 Aug - 19:10:27 10° NNW 19:16:22 63° ENE 19:21:57 10° SE daylight
07 Aug - 20:54:22 10° WNW 20:57:55 17° WSW 21:01:22 10° SW visible
08 Aug - 09:37:40 10° SSW 09:42:51 80° ESE 09:48:31 10° NNE daylight
08 Aug - 11:22:37 10° W 11:25:50 16° NW 11:29:10 10° N daylight
08 Aug - 18:22:35 10° N 18:27:57 34° NE 18:33:06 10° ESE daylight
08 Aug - 20:04:54 10° NW 20:10:07 34° WSW 20:15:04 10° S daylight
09 Aug - 08:50:03 10° S 08:54:49 39° ESE 09:00:00 10° NE daylight
09 Aug - 10:32:36 10° WSW 10:37:08 27° NW 10:41:58 10° N daylight
09 Aug - 17:35:07 10° N 17:39:20 20° NE 17:43:26 10° E daylight
09 Aug - 19:16:15 10° NNW 19:22:07 67° WSW 19:27:39 10° SSE daylight
